{"data":{"norad_id":58302,"epoch":"2026-05-25T05:07:15.307968Z","epoch_age_seconds":63444,"freshness":"FRESH","line1":"1 58302U 23174AY  26145.21337162  .00042791  00000+0  75716-3 0  9999","line2":"2 58302  97.3799 229.1893 0007859 265.5088  94.5266 15.50157887141781","mean_motion":15.50157887,"eccentricity":0.0007859,"inclination_deg":97.3799,"raan_deg":229.1893,"arg_perigee_deg":265.5088,"mean_anomaly_deg":94.5266,"bstar":0.00075716,"rev_number":14178,"period_min":92.893763407985,"perigee_km":410.92495990995,"apogee_km":421.60440047087,"semimajor_km":6794.4016801904,"source":"CELESTRAK","updated_at":"2026-05-25T13:38:00.647976Z"}}